Regional Weather Roundup
Issued by NWS

Home | Current Version | Previous Version | Text Only | Print | Product List | Glossary On
Versions: 1 2 3 4 5 6 7 8 9 10 11 12 13 14 15 16 17 18 19 20 21 22 23 24 25 26 27 28 29 30 31 32 33 34 35 36 37 38 39 40 41 42 43 44 45 46 47 48 49 50
000
ASCA42 TJSJ 251910
RWRPR
PUERTO RICO/U.S. VIRGIN ISLANDS HOURLY WEATHER ROUNDUP
NATIONAL WEATHER SERVICE SAN JUAN PR
300 PM AST SUN JUN 25 2017

PRZ001>002-007>008-010-252000-
PUERTO RICO

CITY           SKY/WX    TMP DP  RH WIND       PRES   REMARKS
SAN JUAN LMM   MOSUNNY   88  77  70 E20       30.04F HX 100
AGUADILLA      PTSUNNY   86  73  66 E18       30.06F HX  93
CEIBA          PTSUNNY   86  77  74 E13G21    30.08F HX  97
$$

VIZ001>002-252000-
U.S. VIRGIN ISLANDS

CITY           SKY/WX    TMP DP  RH WIND       PRES   REMARKS
CHARLOTTE AMA  PTSUNNY   91  75  59 E15       30.03F HX 102
CHRISTIANSTED  PTSUNNY   90  72  55 E20G26    30.04F HX  96
$$

HOURLY WEATHER ROUNDUP FOR THE NEWS MEDIA

CITY           SKY/WX    TMP DP  RH WIND       PRES   REMARKS
ORLANDO        PTSUNNY   91  70  49 S6        30.08F HX  96
NEW YORK       PTSUNNY   80  58  46 S17       29.95F
NEWARK         PTSUNNY   83  52  34 SW13      29.92F
CHICAGO        PTSUNNY   70  45  40 W18G24    30.08F
HARTFORD       SUNNY     79  57  46 SW15      29.92S
BOSTON         MOSUNNY   85  51  31 W8        29.88F
DALLAS         MOSUNNY   86  64  47 NE8       30.20F
PHILADELPHIA   PTSUNNY   85  53  33 W12       29.95F
LOS ANGELES    MOSUNNY   72  62  71 W14       29.90F
WASHINGTON DC  PTSUNNY   82  51  34 W8        30.01F


USA.gov is the U.S. government's official web portal to all federal, state and local government web resources and services.